Flag for Denmark Weather past 2 weeks in Aalborg, Denmark

Now
43 °F

Passing clouds.


Feels Like: 33 °F
Forecast: 35 / 48 °F
Wind: 25 mph from Northwest

Location: Aalborg Airport

Current Time: Apr 1, 2015 at 7:00:16 PM

Latest Report: Apr 1, 2015 at 6:20 PM


Visibility: N/A

Pressure: 29.53 "Hg

Humidity: 61%

Dew point: 30 °F

Location of AalborgLocation

Historic Weather in Aalborg — Graph

°F

Aalborg temperature yesterday

Maximum temperature yesterday: 43 °F (at 4:50 PM)
Minimum temperature yesterday: 36 °F (at 3:20 AM)
Average temperature yesterday: 39 °F

Past Weeks' High & Low Weather Summary

 TemperatureHumidityPressure
High54 °F (Mar 19, 12:50 PM)100% (Mar 19, 9:50 PM)30.48 "Hg (Mar 19, 9:50 PM)
Low23 °F (Mar 22, 4:20 AM)33% (Mar 19, 1:50 PM)28.94 "Hg (Mar 29, 11:50 PM)
Average42 °F82%29.82 "Hg
* Reported Mar 17 4:20 PM — Apr 1 5:50 PM, Aalborg, Weather by CustomWeather, © 2015

Note: Actual official high and low records may vary slightly from our data, if they occured in-between our weather recording intervals... More about our weather records

Advertising

Aalborg weather history for previous 24 hours

 ConditionsComfort  
Time TempWeatherWind HumidityBarometerVisibility
5:50 PM
Wed, Apr 1
43 °FScattered clouds.30 mph61%29.53 "HgN/A
5:20 PM41 °FScattered clouds.26 mph66%29.53 "HgN/A
4:50 PM43 °FScattered clouds.26 mph61%29.53 "HgN/A
4:20 PM45 °FScattered clouds.28 mph57%29.50 "HgN/A
3:50 PM45 °FScattered clouds.29 mph61%29.50 "HgN/A
3:20 PM45 °FScattered clouds.26 mph57%29.50 "HgN/A
2:50 PM45 °FScattered clouds.28 mph57%29.47 "HgN/A
2:20 PM45 °FPassing clouds.26 mph61%29.47 "HgN/A
1:50 PM45 °FPassing clouds.28 mph61%29.47 "HgN/A
1:20 PM45 °FPassing clouds.25 mph61%29.45 "HgN/A
12:50 PM45 °FScattered clouds.25 mph61%29.45 "HgN/A
12:20 PM46 °FScattered clouds.26 mph62%29.45 "HgN/A
11:50 AM45 °FPassing clouds.26 mph66%29.42 "HgN/A
11:20 AM45 °FScattered clouds.25 mph71%29.42 "HgN/A
10:50 AM43 °FScattered clouds.23 mph71%29.39 "HgN/A
10:20 AM43 °FScattered clouds.20 mph76%29.39 "HgN/A
9:50 AM43 °FScattered clouds.18 mph76%29.39 "HgN/A
9:20 AM43 °FScattered clouds.17 mph76%29.36 "HgN/A
8:50 AM41 °FPartly sunny.14 mph87%29.36 "HgN/A
8:20 AM39 °FPassing clouds.13 mph87%29.36 "HgN/A
7:50 AM39 °FPassing clouds.13 mph87%29.36 "HgN/A
7:20 AM39 °FPassing clouds.12 mph87%29.33 "HgN/A
6:50 AM37 °FPassing clouds.10 mph87%29.33 "HgN/A
6:20 AM37 °FPassing clouds.9 mph87%29.33 "HgN/A
5:50 AM37 °FPassing clouds.10 mph87%29.33 "HgN/A
5:20 AM39 °FPassing clouds.12 mph81%29.33 "HgN/A
4:50 AM39 °FPassing clouds.13 mph87%29.33 "HgN/A
4:20 AM39 °FPassing clouds.13 mph87%29.33 "HgN/A
3:50 AM39 °FPassing clouds.10 mph87%29.30 "HgN/A
3:20 AM41 °FPassing clouds.14 mph76%29.30 "HgN/A
2:50 AM41 °FPassing clouds.13 mph81%29.30 "HgN/A
2:20 AM41 °FPassing clouds.12 mph81%29.30 "HgN/A
1:50 AM41 °FClear.14 mph81%29.27 "Hg10 mi
1:20 AM41 °FClear.16 mph81%29.27 "Hg10 mi
12:50 AM41 °FClear.15 mph81%29.27 "Hg10 mi
12:20 AM41 °FPartly cloudy.15 mph81%29.27 "HgN/A
11:50 PM
Tue, Mar 31
41 °FPartly cloudy.14 mph87%29.24 "HgN/A
11:20 PM41 °FPartly cloudy.14 mph87%29.24 "HgN/A
10:50 PM41 °FPartly cloudy.12 mph87%29.24 "HgN/A
10:20 PM41 °FLight rain. Partly cloudy.10 mph87%29.24 "HgN/A
9:50 PM41 °FPartly cloudy.10 mph87%29.24 "HgN/A
9:20 PM41 °FLight rain. Partly cloudy.9 mph93%29.24 "HgN/A
8:50 PM41 °FLight rain. Broken clouds.9 mph87%29.21 "HgN/A
8:20 PM41 °FLight rain. Broken clouds.7 mph87%29.21 "HgN/A
7:50 PM41 °FSprinkles. Broken clouds.6 mph87%29.21 "HgN/A
7:20 PM41 °FSprinkles. Broken clouds.9 mph81%29.18 "HgN/A
Weather by CustomWeather, © 2015

See weather overviewHow to use our weather pages